Fairfield, OH

3:40 AM EST on December 09, 2016 (GMT -0500)
Butler County Regional

Weather History for KHAO - May, 2013

Change the Weather History Date:

Thursday, May 23, 2013

  Actual Average (KLUK) Record (KLUK)
Temperature  
Mean Temperature 62 °F -  
Max Temperature 70 °F 77 °F 90 °F (1965)
Min Temperature 54 °F 56 °F 35 °F (1963)
Degree Days  
Heating Degree Days 4    
Growing Degree Days 12 (Base 50)    
Moisture  
Dew Point 58 °F    
Average Humidity 84    
Maximum Humidity 100    
Minimum Humidity 65    
Precipitation  
Precipitation 0.09 in - - ()
Sea Level Pressure  
Sea Level Pressure 29.91 in    
Wind  
Wind Speed 4 mph (West)    
Max Wind Speed 15 mph    
Max Gust Speed 26 mph    
Visibility 8 miles    
Events Rain    
Averages and records for this station are not official NWS values.
T = Trace of Precipitation, MM = Missing Value Source: NWS Daily Summary

Daily Weather History Graph

Daily Weather History Graph

Search for Another Location

Airport or City:

Trip Planner

Search our weather history database for the weather conditions in past years. The results will help you decide how hot, cold, wet, or windy it might be!

Date:

Astronomy

May. 23, 2013 Rise Set
Actual Time 6:17 AM EDT 8:52 PM EDT
Civil Twilight 5:46 AM EDT 9:23 PM EDT
Nautical Twilight 5:08 AM EDT 10:02 PM EDT
Astronomical Twilight 4:25 AM EDT 10:45 PM EDT
Moon 7:24 PM EDT (5/23) 5:01 AM EDT (5/23)
Length of Visible Light 15h 36m
Length of Day
14h 34m
Waxing Gibbous, 97% of the Moon is Illuminated
May 23
Waxing Gibbous
May 25
Full
May 31
Last Quarter
Jun 8
New
Jun 16
First Quarter

Hourly Weather History & Observations

Time (EDT) Temp. Dew Point Humidity Pressure Visibility Wind Dir Wind Speed Gust Speed Precip Events Conditions
12:53 AM 66.0 °F 64.0 °F 93% 29.82 in 6.0 mi Calm Calm - N/A   Mostly Cloudy
1:14 AM 66.2 °F 64.4 °F 94% 29.83 in 5.0 mi Calm Calm - N/A   Overcast
1:41 AM 66.2 °F 64.4 °F 94% 29.83 in 5.0 mi Calm Calm - N/A   Overcast
1:53 AM 66.0 °F 64.0 °F 93% 29.82 in 5.0 mi Calm Calm - N/A   Overcast
2:23 AM 66.2 °F 64.4 °F 94% 29.83 in 5.0 mi Calm Calm - N/A   Overcast
2:53 AM 64.0 °F 63.0 °F 96% 29.81 in 4.0 mi Calm Calm - N/A   Mostly Cloudy
3:19 AM 64.4 °F 62.6 °F 94% 29.82 in 2.5 mi Calm Calm - N/A   Mostly Cloudy
3:28 AM 64.4 °F 62.6 °F 94% 29.83 in 3.0 mi Calm Calm - N/A   Overcast
3:40 AM 64.4 °F 64.4 °F 100% 29.83 in 2.5 mi WSW 3.5 mph - 0.02 in Rain Light Rain
3:50 AM 64.4 °F 62.6 °F 94% 29.83 in 2.0 mi SW 5.8 mph - 0.05 in Rain Rain
3:53 AM 64.0 °F 63.0 °F 96% 29.81 in 2.5 mi SW 8.1 mph - 0.05 in Rain Rain
4:00 AM 62.6 °F 60.8 °F 94% 29.83 in 5.0 mi SW 5.8 mph - 0.01 in Rain Light Rain
4:53 AM 63.0 °F 61.0 °F 93% 29.82 in 10.0 mi Calm Calm - 0.02 in   Overcast
5:53 AM 62.1 °F 60.1 °F 93% 29.83 in 9.0 mi Calm Calm - N/A   Overcast
6:53 AM 62.1 °F 61.0 °F 96% 29.85 in 7.0 mi West 4.6 mph - N/A   Overcast
7:53 AM 63.0 °F 61.0 °F 93% 29.87 in 10.0 mi Variable 5.8 mph - N/A   Mostly Cloudy
8:53 AM 64.9 °F 60.1 °F 84% 29.88 in 10.0 mi West 6.9 mph - N/A   Partly Cloudy
9:53 AM 68.0 °F 59.0 °F 73% 29.89 in 10.0 mi WSW 9.2 mph - N/A   Scattered Clouds
10:13 AM 66.2 °F 57.2 °F 73% 29.90 in 10.0 mi WSW 8.1 mph - N/A   Mostly Cloudy
10:24 AM 68.0 °F 57.2 °F 68% 29.90 in 10.0 mi WSW 6.9 mph - N/A   Mostly Cloudy
10:53 AM 69.1 °F 57.9 °F 68% 29.89 in 10.0 mi SW 10.4 mph 17.3 mph N/A   Mostly Cloudy
11:53 AM 69.1 °F 57.0 °F 65% 29.89 in 10.0 mi West 9.2 mph 16.1 mph N/A   Mostly Cloudy
12:53 PM 66.9 °F 55.0 °F 66% 29.90 in 10.0 mi West 11.5 mph 18.4 mph N/A   Overcast
1:53 PM 64.9 °F 55.9 °F 73% 29.90 in 8.0 mi West 9.2 mph 16.1 mph 0.00 in Rain Light Rain
2:53 PM 63.0 °F 57.0 °F 81% 29.91 in 9.0 mi WNW 11.5 mph - 0.00 in Rain Light Rain
3:53 PM 68.0 °F 55.9 °F 65% 29.92 in 10.0 mi WSW 9.2 mph 17.3 mph 0.00 in   Overcast
4:53 PM 66.9 °F 55.0 °F 66% 29.92 in 10.0 mi West 8.1 mph 16.1 mph N/A   Overcast
5:53 PM 63.0 °F 57.9 °F 84% 29.95 in 4.0 mi West 8.1 mph 19.6 mph 0.01 in Rain Light Rain
6:53 PM 62.1 °F 57.9 °F 86% 29.96 in 10.0 mi Variable 4.6 mph - 0.00 in   Overcast
7:53 PM 61.0 °F 53.1 °F 75% 29.99 in 10.0 mi NNW 15.0 mph 26.5 mph N/A   Overcast
8:23 PM 59.0 °F 51.8 °F 77% 30.01 in 10.0 mi NNW 13.8 mph 21.9 mph N/A   Overcast
8:53 PM 57.9 °F 51.1 °F 78% 30.02 in 10.0 mi NNW 8.1 mph - N/A   Overcast
9:30 PM 55.4 °F 51.8 °F 88% 30.04 in 4.0 mi North 12.7 mph - 0.01 in Rain Light Rain
9:44 PM 55.4 °F 51.8 °F 88% 30.05 in 10.0 mi NNW 10.4 mph - 0.01 in   Overcast
9:53 PM 55.0 °F 51.1 °F 86% 30.05 in 10.0 mi NNW 8.1 mph - 0.01 in   Overcast
10:16 PM 55.4 °F 50.0 °F 82% 30.07 in 10.0 mi North 9.2 mph - N/A   Overcast
10:53 PM 54.0 °F 48.9 °F 83% 30.09 in 10.0 mi NNW 12.7 mph 17.3 mph N/A   Overcast
11:53 PM 54.0 °F 46.0 °F 75% 30.12 in 10.0 mi North 12.7 mph 21.9 mph N/A   Overcast